Hourly Weather Kyrdzhali

Today, 28 September, Monday

Time Temperature Precipitation Wind Pressure Humidity
00:00 +15°C° 0 mm 2 mps 726 mmHg 76%
01:00 +15°C° 0 mm 2 mps 726 mmHg 78%
02:00 +14°C° 0 mm 2 mps 726 mmHg 81%
03:00 +15°C° 0 mm 2 mps 726 mmHg 82%
04:00 +15°C° 0 mm 2 mps 726 mmHg 84%
05:00 +15°C° 0 mm 2 mps 726 mmHg 85%
06:00 +16°C° 0 mm 2 mps 726 mmHg 82%
07:00 +18°C° 0 mm 3 mps 726 mmHg 80%
08:00 +19°C° 0 mm 3 mps 726 mmHg 77%
09:00 +20°C° 0.1 mm 4 mps 726 mmHg 74%
10:00 +21°C° 0.1 mm 5 mps 727 mmHg 71%
11:00 +23°C° 0.1 mm 6 mps 727 mmHg 68%
12:00 +23°C° 0.1 mm 6 mps 726 mmHg 66%
13:00 +24°C° 0.1 mm 6 mps 726 mmHg 63%
14:00 +26°C° 0.1 mm 6 mps 726 mmHg 61%
15:00 +24°C° 0 mm 6 mps 726 mmHg 64%
16:00 +24°C° 0 mm 6 mps 725 mmHg 67%
17:00 +23°C° 0 mm 6 mps 725 mmHg 70%
18:00 +21°C° 0 mm 5 mps 725 mmHg 78%
19:00 +20°C° 0 mm 4 mps 725 mmHg 86%
20:00 +19°C° 0 mm 2 mps 725 mmHg 93%
21:00 +18°C° 0 mm 2 mps 725 mmHg 93%
22:00 +18°C° 0 mm 2 mps 724 mmHg 93%
23:00 +18°C° 0 mm 2 mps 724 mmHg 92%

Tomorrow, 29 September, Tuesday

Time Temperature Precipitation Wind Pressure Humidity
00:00 +18°C° 0 mm 2 mps 724 mmHg 92%
01:00 +17°C° 0 mm 2 mps 724 mmHg 92%
02:00 +18°C° 0 mm 1 mps 724 mmHg 92%
03:00 +18°C° 0 mm 1 mps 724 mmHg 91%
04:00 +18°C° 0 mm 1 mps 724 mmHg 90%
05:00 +16°C° 0 mm 1 mps 723 mmHg 90%
06:00 +19°C° 0 mm 1 mps 723 mmHg 84%
07:00 +20°C° 0 mm 1 mps 724 mmHg 78%
08:00 +21°C° 0 mm 1 mps 724 mmHg 72%
09:00 +21°C° 0.2 mm 2 mps 724 mmHg 61%
10:00 +24°C° 0.2 mm 2 mps 724 mmHg 50%
11:00 +26°C° 0.2 mm 2 mps 724 mmHg 39%
12:00 +26°C° 0.1 mm 3 mps 724 mmHg 37%
13:00 +26°C° 0.1 mm 3 mps 723 mmHg 36%
14:00 +26°C° 0.1 mm 3 mps 723 mmHg 35%
15:00 +26°C° 0.1 mm 3 mps 723 mmHg 37%
16:00 +25°C° 0.1 mm 3 mps 723 mmHg 40%
17:00 +24°C° 0.1 mm 2 mps 722 mmHg 42%
18:00 +21°C° 0 mm 2 mps 722 mmHg 48%
19:00 +21°C° 0 mm 1 mps 722 mmHg 53%
20:00 +19°C° 0 mm 1 mps 722 mmHg 59%
21:00 +18°C° 0.1 mm 1 mps 722 mmHg 62%
22:00 +16°C° 0.1 mm 1 mps 722 mmHg 66%
23:00 +16°C° 0.1 mm 1 mps 722 mmHg 69%

Day after tomorrow, 30 September, Wednesday

Time Temperature Precipitation Wind Pressure Humidity
00:00 +15°C° 0.2 mm 1 mps 722 mmHg 72%
01:00 +15°C° 0.2 mm 1 mps 722 mmHg 76%
02:00 +14°C° 0.2 mm 2 mps 722 mmHg 79%
03:00 +14°C° 0.1 mm 2 mps 722 mmHg 80%
04:00 +13°C° 0.1 mm 2 mps 722 mmHg 81%
05:00 +13°C° 0.1 mm 2 mps 722 mmHg 82%
06:00 +14°C° 0 mm 2 mps 722 mmHg 77%
07:00 +15°C° 0 mm 2 mps 723 mmHg 71%
08:00 +15°C° 0 mm 2 mps 723 mmHg 65%
09:00 +17°C° 0 mm 3 mps 723 mmHg 57%
10:00 +19°C° 0 mm 3 mps 723 mmHg 48%
11:00 +21°C° 0 mm 4 mps 723 mmHg 40%
12:00 +21°C° 0 mm 3 mps 723 mmHg 39%
13:00 +21°C° 0 mm 3 mps 722 mmHg 39%
14:00 +21°C° 0 mm 3 mps 722 mmHg 39%
15:00 +20°C° 0.1 mm 2 mps 722 mmHg 45%
16:00 +19°C° 0.1 mm 2 mps 722 mmHg 51%
17:00 +19°C° 0.1 mm 1 mps 721 mmHg 58%
18:00 +18°C° 0.2 mm 1 mps 722 mmHg 60%
19:00 +16°C° 0.2 mm 1 mps 722 mmHg 62%
20:00 +16°C° 0.2 mm 1 mps 722 mmHg 64%
21:00 +15°C° 0 mm 1 mps 722 mmHg 65%
22:00 +14°C° 0 mm 1 mps 722 mmHg 66%
23:00 +14°C° 0 mm 1 mps 722 mmHg 67%

1 October, Thursday

Time Temperature Precipitation Wind Pressure Humidity
00:00 +13°C° 0 mm 1 mps 721 mmHg 69%
01:00 +13°C° 0 mm 1 mps 721 mmHg 71%
02:00 +12°C° 0 mm 1 mps 721 mmHg 72%
03:00 +12°C° 0 mm 1 mps 721 mmHg 73%
04:00 +12°C° 0 mm 1 mps 720 mmHg 74%
05:00 +12°C° 0 mm 1 mps 720 mmHg 74%
06:00 +13°C° 0 mm 1 mps 721 mmHg 71%
07:00 +14°C° 0 mm 1 mps 721 mmHg 67%
08:00 +15°C° 0 mm 1 mps 721 mmHg 63%
09:00 +16°C° 0.2 mm 1 mps 721 mmHg 60%
10:00 +19°C° 0.2 mm 1 mps 721 mmHg 57%
11:00 +20°C° 0.2 mm 1 mps 721 mmHg 54%
12:00 +19°C° 0.4 mm 2 mps 721 mmHg 53%
13:00 +20°C° 0.4 mm 2 mps 721 mmHg 53%
14:00 +20°C° 0.4 mm 3 mps 721 mmHg 52%
15:00 +20°C° 0.4 mm 2 mps 720 mmHg 55%
16:00 +19°C° 0.4 mm 2 mps 720 mmHg 57%
17:00 +20°C° 0.4 mm 1 mps 720 mmHg 59%
18:00 +19°C° 0.1 mm 1 mps 720 mmHg 63%
19:00 +18°C° 0.1 mm 1 mps 720 mmHg 67%
20:00 +14°C° 0.1 mm 0 mps 721 mmHg 71%
21:00 +14°C° 0 mm 0 mps 721 mmHg 73%
22:00 +14°C° 0 mm 1 mps 721 mmHg 74%
23:00 +14°C° 0 mm 1 mps 721 mmHg 76%

2 October, Friday

Time Temperature Precipitation Wind Pressure Humidity
00:00 +14°C° 0 mm 1 mps 721 mmHg 77%
01:00 +13°C° 0 mm 1 mps 721 mmHg 78%
02:00 +13°C° 0 mm 1 mps 721 mmHg 80%
03:00 +13°C° 0 mm 1 mps 721 mmHg 80%
04:00 +13°C° 0 mm 1 mps 721 mmHg 80%
05:00 +13°C° 0 mm 1 mps 721 mmHg 80%
06:00 +14°C° 0 mm 1 mps 721 mmHg 76%
07:00 +15°C° 0 mm 1 mps 721 mmHg 73%
08:00 +15°C° 0 mm 0 mps 722 mmHg 69%
09:00 +19°C° 0 mm 1 mps 722 mmHg 62%
10:00 +20°C° 0 mm 2 mps 722 mmHg 56%
11:00 +22°C° 0 mm 3 mps 723 mmHg 50%
12:00 +23°C° 0 mm 4 mps 723 mmHg 47%
13:00 +25°C° 0 mm 5 mps 723 mmHg 45%
14:00 +25°C° 0 mm 5 mps 722 mmHg 42%
15:00 +25°C° 0 mm 5 mps 722 mmHg 47%
16:00 +23°C° 0 mm 5 mps 722 mmHg 52%
17:00 +22°C° 0 mm 5 mps 722 mmHg 56%
18:00 +20°C° 0 mm 4 mps 722 mmHg 65%
19:00 +18°C° 0 mm 3 mps 722 mmHg 73%
20:00 +17°C° 0 mm 2 mps 723 mmHg 82%
21:00 +16°C° 0 mm 2 mps 723 mmHg 81%
22:00 +16°C° 0 mm 2 mps 723 mmHg 81%
23:00 +16°C° 0 mm 2 mps 723 mmHg 81%

3 October, Saturday

Time Temperature Precipitation Wind Pressure Humidity
00:00 +15°C° 0 mm 2 mps 723 mmHg 80%
01:00 +15°C° 0 mm 1 mps 723 mmHg 80%
02:00 +15°C° 0 mm 1 mps 723 mmHg 79%
03:00 +15°C° 0 mm 1 mps 723 mmHg 80%
04:00 +15°C° 0 mm 1 mps 723 mmHg 80%
05:00 +14°C° 0 mm 1 mps 723 mmHg 81%
06:00 +15°C° 0 mm 1 mps 723 mmHg 78%
07:00 +18°C° 0 mm 1 mps 723 mmHg 75%
08:00 +19°C° 0 mm 1 mps 723 mmHg 72%
09:00 +20°C° 0 mm 2 mps 724 mmHg 65%
10:00 +22°C° 0 mm 3 mps 724 mmHg 58%
11:00 +25°C° 0 mm 4 mps 724 mmHg 52%
12:00 +25°C° 0 mm 5 mps 724 mmHg 51%
13:00 +24°C° 0 mm 6 mps 723 mmHg 50%
14:00 +26°C° 0 mm 6 mps 723 mmHg 50%
15:00 +24°C° 0 mm 6 mps 723 mmHg 54%
16:00 +23°C° 0 mm 6 mps 723 mmHg 59%
17:00 +22°C° 0 mm 5 mps 723 mmHg 64%
18:00 +21°C° 0 mm 5 mps 723 mmHg 71%
19:00 +19°C° 0 mm 4 mps 723 mmHg 78%
20:00 +18°C° 0 mm 3 mps 723 mmHg 85%
21:00 +17°C° 0 mm 3 mps 724 mmHg 86%
22:00 +17°C° 0 mm 2 mps 724 mmHg 86%
23:00 +17°C° 0 mm 2 mps 724 mmHg 86%
Show more